星链-30899 (STARLINK-30899 )

导读

STARLINK-30899是美国太空探索技术公司星链(Starlink)互联网卫星组网的组成部分,于2023年11月22日发射入轨,属于第二代星链卫星,旨在为全球提供低延迟、高速率的宽带互联网服务,尤其覆盖偏远地区与网络基础设施薄弱区域,目前在轨运行,是星链大规模星座建设中的一员。

基本信息
目录编号:
58420
目录名称:
STARLINK-30899
国际标识:
2023-180U
轨道中心:
EARTH
卫星名称:
星链-30899
卫星全名:
星链-30899 (STARLINK-30899 )
卫星状态:
在轨 (已飞行939 天)
发射日期:
2023-11-22 UTC
国别 :
美国 (US)
星等 :
--
轨道信息
数据来源 国际轨道数据 AOE轨道数据
星历时间 2026-06-17T04:12:00+0800
1天前
查看轨道信息
2026-06-17T06:00:00+0800
1天前
查看轨道信息
半长轴 6861.186km 6861.21km
偏心率 0.0001199 0.0002274
轨道倾角 42.999° 43.008°
近地点辐角 269.767° 263.402°
升交点赤经 212.281° 211.858°
平近点角 90.304° 149.619°
近地点 482.226km 481.512km
远地点 483.872km 484.634km
周期 94.267分钟 94.267分钟
每日圈数 15.275801 15.275721
详细信息
固有亮度:
5
最大亮度:
0.3
卫星平台:
Starlink v2.0 mini
覆盖范围:
全球
运营商:
太空探索技术公司
运营商所在国:
美国
制造商(研发单位):
太空探索技术公司
制造商所在国:
美国
使用方式:
暂无
卫星简介
星链(Starlink)计划是由太空探索技术公司(SpaceX)提出的一个巨型低轨卫星互联网星座项目,计划在2019年至2024年间在太空搭建由约1.2万颗卫星组成的“星链”网络,其中1584颗将部署在地球上空550千米处的近地轨道,并从2020年开始工作。该卫星仍在工作。
2D轨道图
3D轨道图
轨道高度分析图
轨道倾角分析图
轨道综合分析图
查看轨道综合分析图